Northolt, United Kingdom

12:23 PM GMT on February 25, 2018 (GMT +0000)
Northolt Air Base

Weather History for EGWU - September, 2014

Change the Weather History Date:

Wednesday, September 3, 2014

  Actual Average Record
Temperature  
Mean Temperature 66 °F -  
Max Temperature 74 °F 65 °F 80 °F (1999)
Min Temperature 57 °F 50 °F 46 °F (2000)
Growing Degree Days 16 (Base 50)    
Moisture  
Dew Point 56 °F    
Average Humidity 71    
Maximum Humidity 94    
Minimum Humidity 39    
Precipitation  
Precipitation 0.00 in - - ()
Sea Level Pressure  
Sea Level Pressure 30.19 in    
Wind  
Wind Speed 7 mph ()    
Max Wind Speed 13 mph    
Max Gust Speed -    
Visibility 7.3 miles    
Events      
Averages and records for this station are not official NWS values.
T = Trace of Precipitation, MM = Missing Value Source: Averaged Metar Reports

Daily Weather History Graph

Daily Weather History Graph

Search for Another Location

Airport or City:

Trip Planner

Search our weather history database for the weather conditions in past years. The results will help you decide how hot, cold, wet, or windy it might be!

Date:

Astronomy

Sep. 03, 2014 Rise Set
Actual Time 6:17 AM BST 7:43 PM BST
Civil Twilight 5:42 AM BST 8:18 PM BST
Nautical Twilight 4:59 AM BST 9:00 PM BST
Astronomical Twilight 4:13 AM BST 9:47 PM BST
Moon 3:34 PM BST (9/3) No Moon Set
Length of Visible Light 14h 36m
Length of Day
13h 26m
First Quarter, 61% of the Moon is Illuminated
Sep 3
First Quarter
Sep 9
Full
Sep 16
Last Quarter
Sep 24
New
Oct 1
First Quarter

Hourly Weather History & Observations

Time (BST) Temp. Dew Point Humidity Pressure Visibility Wind Dir Wind Speed Gust Speed Precip Events Conditions
12:00 AM 61 °F 57 °F 83% 30.24 in 11 mi East 5.8 mph - -   Scattered Clouds
12:50 AM 59.0 °F 57.2 °F 94% 30.21 in 6.2 mi East 5.8 mph - N/A   Unknown
1:00 AM 59 °F 56 °F 88% 30.24 in 8 mi East 5.8 mph - -  
1:50 AM 59.0 °F 57.2 °F 94% 30.21 in 6.2 mi NE 5.8 mph - N/A   Partly Cloudy
2:00 AM 59 °F 57 °F 89% 30.23 in 7 mi NE 5.8 mph - -   Scattered Clouds
2:50 AM 57.2 °F 55.4 °F 94% 30.21 in 3.7 mi NE 3.5 mph - N/A   Unknown
3:00 AM 58 °F 56 °F 90% 30.23 in 4 mi NE 3.5 mph - -  
3:50 AM 59.0 °F 57.2 °F 94% 30.21 in 3.1 mi East 5.8 mph - N/A   Mostly Cloudy
4:00 AM 59 °F 57 °F 92% 30.22 in 3 mi East 5.8 mph - -   Mostly Cloudy
4:50 AM 59.0 °F 57.2 °F 94% 30.21 in 3.1 mi East 5.8 mph - N/A   Overcast
5:00 AM 59 °F 57 °F 92% 30.22 in 3 mi East 5.8 mph - -   Overcast
6:00 AM 60 °F 57 °F 87% 30.22 in 4 mi NE 4.6 mph - -   Overcast
6:50 AM 60.8 °F 57.2 °F 88% 30.21 in 3.1 mi NE 5.8 mph - N/A   Haze
7:00 AM 60 °F 57 °F 88% 30.23 in 3 mi NE 5.8 mph - -   Haze
7:50 AM 60.8 °F 57.2 °F 88% 30.21 in 3.7 mi East 6.9 mph - N/A   Haze
8:00 AM 61 °F 58 °F 85% 30.23 in 4 mi East 6.9 mph - -   Haze
8:50 AM 62.6 °F 59.0 °F 88% 30.21 in 4.3 mi East 8.1 mph - N/A   Haze
9:00 AM 62 °F 58 °F 83% 30.23 in 4 mi East 8.1 mph - -   Haze
9:50 AM 64.4 °F 57.2 °F 77% 30.21 in 5.0 mi East 6.9 mph - N/A   Haze
10:00 AM 64 °F 58 °F 74% 30.24 in 5 mi East 6.9 mph - -   Haze
10:50 AM 66.2 °F 57.2 °F 73% 30.21 in 4.3 mi ENE 9.2 mph - N/A   Haze
11:00 AM 67 °F 57 °F 63% 30.24 in 4 mi ENE 9.2 mph - -   Haze
11:50 AM 68.0 °F 57.2 °F 68% 30.21 in 5.6 mi East 9.2 mph - N/A   Haze
12:00 PM 68 °F 57 °F 58% 30.22 in 6 mi East 9.2 mph - -   Haze
12:50 PM 69.8 °F 57.2 °F 64% 30.18 in 6.2 mi ENE 9.2 mph - N/A   Mostly Cloudy
1:00 PM 69 °F 56 °F 55% 30.20 in 9 mi ENE 9.2 mph - -   Mostly Cloudy
1:50 PM 71.6 °F 57.2 °F 60% 30.18 in 6.2 mi East 10.4 mph - N/A   Mostly Cloudy
2:00 PM 71 °F 57 °F 51% 30.19 in 12 mi East 10.4 mph - -   Mostly Cloudy
2:50 PM 73.4 °F 57.2 °F 57% 30.18 in 6.2 mi East 8.1 mph - N/A   Mostly Cloudy
3:00 PM 72 °F 57 °F 49% 30.18 in 12 mi East 8.1 mph - -   Mostly Cloudy
3:50 PM 71.6 °F 55.4 °F 57% 30.15 in 6.2 mi East 9.2 mph - N/A   Mostly Cloudy
4:00 PM 71 °F 56 °F 48% 30.16 in 19 mi East 9.2 mph - -   Mostly Cloudy
4:50 PM 73.4 °F 57.2 °F 57% 30.15 in 6.2 mi ESE 11.5 mph - N/A   Scattered Clouds
5:00 PM 73 °F 57 °F 47% 30.15 in 16 mi ESE 11.5 mph - -   Partly Cloudy
5:50 PM 71.6 °F 55.4 °F 57% 30.12 in 6.2 mi East 11.5 mph - N/A   Scattered Clouds
6:00 PM 72 °F 55 °F 45% 30.14 in 19 mi East 11.5 mph - -   Scattered Clouds
6:50 PM 69.8 °F 50.0 °F 49% 30.15 in 6.2 mi East 11.5 mph - N/A   Scattered Clouds
7:00 PM 70 °F 51 °F 39% 30.15 in 19 mi East 11.5 mph - -   Scattered Clouds
7:50 PM 66.2 °F 50.0 °F 56% 30.15 in - East 12.7 mph - N/A   Clear
8:00 PM 66 °F 50 °F 46% 30.16 in 25 mi East 12.7 mph - -   Clear
8:50 PM 64.4 °F 50.0 °F 59% 30.15 in - East 8.1 mph - N/A   Clear
9:00 PM 64 °F 51 °F 52% 30.17 in 25 mi East 8.1 mph - -   Clear
9:50 PM 62.6 °F 51.8 °F 68% 30.15 in - East 9.2 mph - N/A   Clear
10:00 PM 62 °F 52 °F 62% 30.17 in 16 mi East 9.2 mph - -   Clear
10:50 PM 60.8 °F 53.6 °F 77% 30.15 in - ENE 8.1 mph - N/A   Clear
11:00 PM 61 °F 53 °F 68% 30.17 in 12 mi ENE 8.1 mph - -   Clear
11:50 PM 59.0 °F 53.6 °F 82% 30.15 in - ENE 6.9 mph - N/A   Clear